Location: Antioch
(38.0049°N, 121.8058°W)
Time: 18:26:41
(UTC+00:00)

Cosmos 2208 Rocket - Visible Passes

Search period start: 18 May 2026 00:00
Search period end: 28 May 2026 00:00
Orbit: 751 x 800 km, 74.0° (Epoch: 18 May)

Date Brightness Start Highest point End Pass type
(mag) Time Alt. Az. Time Alt. Az. Time Alt. Az.
18 May 5.5 08:38:56 29° ENE 08:38:56 29° ENE 08:42:16 10° NE visible
18 May 5.2 10:19:21 27° WNW 10:19:46 28° WNW 10:24:15 10° N visible
19 May 6.1 08:04:41 17° ENE 08:04:41 17° ENE 08:06:42 10° NE visible
19 May 4.7 09:45:05 44° WNW 09:45:05 44° WNW 09:49:49 10° N visible
20 May 4.4 09:10:48 60° N 09:10:48 60° N 09:15:10 10° NNE visible
21 May 4.8 08:36:29 47° NE 08:36:29 47° NE 08:40:19 10° NNE visible
21 May 6.0 10:16:53 14° WNW 10:17:48 15° WNW 10:20:47 10° NNW visible
22 May 5.4 08:02:08 30° ENE 08:02:08 30° ENE 08:05:14 10° NE visible
22 May 5.6 09:42:33 24° WNW 09:42:41 24° WNW 09:46:53 10° N visible
23 May 6.0 07:27:46 19° ENE 07:27:46 19° ENE 07:29:50 10° NE visible
23 May 5.0 09:08:10 37° NW 09:08:10 37° NW 09:12:33 10° N visible
24 May 6.4 06:53:22 11° ENE 06:53:22 11° ENE 06:53:43 10° ENE visible
24 May 4.6 08:33:46 52° NNW 08:33:46 52° NNW 08:37:58 10° NNE visible
25 May 4.7 07:59:20 49° NNE 07:59:20 49° NNE 08:03:10 10° NNE visible
25 May 6.3 09:39:44 12° WNW 09:40:45 13° NW 09:43:05 10° NNW visible
26 May 5.2 07:24:53 34° ENE 07:24:53 34° ENE 07:28:10 10° NNE visible
26 May 5.8 09:05:17 20° WNW 09:05:36 20° WNW 09:09:28 10° NNW visible
27 May 5.7 06:50:24 22° ENE 06:50:24 22° ENE 06:52:53 10° NE visible
27 May 5.3 08:30:47 32° WNW 08:30:47 32° WNW 08:35:15 10° N visible
